This is the latest recevied weather packets stored in our database for station/object K8WEH. If no packets are shown the sender has not sent any weather packets the latest 10 day(s).
| Time | Temp. | Humidity | Pressure | Rain* | Wind** | Luminosity | Snow |
|---|---|---|---|---|---|---|---|
| 1777925407 | 22.78° C | 54% | 1010.6 hPa | 0 mm | - | - | - |
| 1777925105 | 22.78° C | 55% | 1010.6 hPa | 0 mm | - | - | - |
| 1777924807 | 22.22° C | 56% | 1010.6 hPa | 0 mm | - | - | - |
| 1777924502 | 22.22° C | 55% | 1010.7 hPa | 0 mm | - | - | - |
| 1777924202 | 22.22° C | 55% | 1010.7 hPa | 0 mm | - | - | - |
| 1777923901 | 21.67° C | 55% | 1010.8 hPa | 0 mm | - | - | - |
| 1777923660 | 21.67° C | 54% | 1011.1 hPa | 0 mm | - | - | - |
| 1777923359 | 21.67° C | 57% | 1011 hPa | 0 mm | - | - | - |
| 1777923059 | 21.67° C | 56% | 1011.1 hPa | 0 mm | - | - | - |
| 1777922760 | 21.67° C | 57% | 1011.2 hPa | 0 mm | - | - | - |
| 1777922457 | 21.67° C | 55% | 1011.1 hPa | 0 mm | - | - | - |
| 1777922167 | 21.11° C | 56% | 1011.2 hPa | 0 mm | - | - | - |
| 1777921855 | 21.11° C | 57% | 1011.1 hPa | 0 mm | - | - | - |
| 1777921555 | 21.11° C | 55% | 1011.2 hPa | 0 mm | - | - | - |
| 1777921277 | 21.11° C | 56% | 1011.1 hPa | 0 mm | - | - | - |
| 1777920954 | 21.11° C | 57% | 1011.1 hPa | 0 mm | - | - | - |
| 1777920651 | 20.56° C | 57% | 1011.3 hPa | 0 mm | - | - | - |
| 1777920350 | 20.56° C | 57% | 1011.1 hPa | 0 mm | - | - | - |
| 1777920049 | 20.56° C | 57% | 1011.1 hPa | 0 mm | - | - | - |
| 1777919748 | 20.56° C | 59% | 1011 hPa | 0 mm | - | - | - |
| 1777919447 | 20° C | 58% | 1011.1 hPa | 0 mm | - | - | - |
| 1777919145 | 20° C | 61% | 1011.3 hPa | 0 mm | - | - | - |
| 1777918843 | 19.44° C | 64% | 1011.4 hPa | 0 mm | - | - | - |
| 1777918545 | 18.89° C | 65% | 1011.4 hPa | 0 mm | - | - | - |
| 1777918243 | 18.89° C | 64% | 1011.5 hPa | 0 mm | - | - | - |
* Rain latest hour (hover to see other rain measurements)
** Current wind speed in m/s (hover to see current wind gust speed)